Location: Unspecified
(0.0000°N, 0.0000°E)
Time: 20:45:21
(UTC+00:00)

SR - Pass Details

Date: 10 October 2020
Orbit: 582 x 874 km, 66.7° (Epoch: 20 October)

Event Time Altitude Azimuth Distance (km) Brightness Sun altitude
Rises 16:01:05 0° 5° (N) 3,218 ? 26.2°
Reaches altitude 10° 16:03:53 10° 20° (NNE) 2,345 ? 25.5°
Maximum altitude 16:08:06 23° 71° (ENE) 1,679 ? 24.5°
Drops below altitude 10° 16:12:31 10° 122° (ESE) 2,472 ? 23.4°
Sets 16:15:32 0° 136° (SE) 3,437 ? 22.6°
